Regional Weather Roundup
Issued by NWS

Home | Current Version | Previous Version | Text Only | Print | Product List | Glossary Off
Versions: 1 2 3 4 5 6 7 8 9 10 11 12 13 14 15 16 17 18 19 20 21 22 23 24 25 26 27 28 29 30 31 32 33 34 35 36 37 38 39 40 41 42 43 44 45 46 47 48 49 50

000
ASUS43 KMPX 131401
RWRMN
WEATHER ROUNDUP FOR MINNESOTA
NATIONAL WEATHER SERVICE TWIN CITIES/CHANHASSEN MN
800 AM CST WED DEC 13 2017


NOTE: "FAIR" INDICATES FEW OR NO CLOUDS BELOW 12,000 FEET WITH NO
SIGNIFICANT WEATHER AND/OR OBSTRUCTIONS TO VISIBILITY. N/A MEANS
CURRENT SKY AND/OR WEATHER CONDITIONS ARE NOT AVAILABLE.

MNZ060>063-068>070-131500-
   Twin Cities Metro

CITY           SKY/WX    TMP DP  RH WIND       PRES   REMARKS
TWIN CITIES    LGT SNOW  28  25  88 N10       29.40R VSB 1   WCI  19
ST PAUL        SNOW      26  21  81 N13       29.42R VSB 1/2 WCI  15
CRYSTAL        LGT SNOW  25  21  85 N8        29.41R VSB 1   WCI  16
BLAINE         LGT SNOW  25  23  93 N8        29.40R WCI  16
LAKEVILLE      PTCLDY    27  25  93 NW12      29.37R WCI  16
EDEN PRAIRIE   LGT SNOW  29  25  85 N13       29.39R VSB 1   WCI  19
SOUTH ST PAUL  PTCLDY    28  23  83 N8        29.39R WCI  20
LAKE ELMO      LGT SNOW  25  21  86 N7        29.39R WCI  17
$$
MNZ001>005-007-008-013>017-022>024-027-028-131500-
   Northwest Minnesota

CITY           SKY/WX    TMP DP  RH WIND       PRES   REMARKS
BEMIDJI        CLOUDY    19  17  94 NW15G21   29.57R FOG     WCI   4
HALLOCK        CLOUDY    25  21  86 N17       29.70R WCI  11
ROSEAU         CLOUDY    18  12  79 N9        29.65R WCI   6
WARROAD        FLURRIES  16  10  79 N7        29.65S WCI   6
CROOKSTON      CLOUDY    25  23  93 N26       29.69R WCI   9
FOSSTON        CLOUDY    19  18  93 N17       29.62R FOG     WCI   4
DETROIT LAKES  CLOUDY    25  23  93 N26G35    29.61R FOG     WCI   9
MOORHEAD       CLOUDY    28  25  86 N32       29.69R WCI  12
PARK RAPIDS    CLOUDY    24  21  88 N15       29.53R WCI  11
MAHNOMEN       CLOUDY    23  22  96 N21       29.61R FOG     WCI   7
$$
MNZ006-009>011-018-025>026-131500-
   North Central Minnesota

CITY           SKY/WX    TMP DP  RH WIND       PRES   REMARKS
BAUDETTE       FLURRIES  14  11  87 N7        29.63R WCI   4
FLAG ISLAND    LGT SNOW  12  10  92 N9        29.65R WCI   0
INTL FALLS     LGT SNOW  15  10  80 N6        29.61R VSB 3/4 WCI   6
WASKISH        LGT SNOW  16  14  93 N3        29.61R
BIG FORK       LGT SNOW  16  14  93 N5        29.55R WCI   9
LONGVILLE      CLOUDY    16  14  93 N6        29.54R WCI   7
GRAND RAPIDS   LGT SNOW  16  14  92 N9        29.54R FOG     WCI   4
CRANE LAKE     LGT SNOW  14  10  85 N3        29.60R
ORR            FLURRIES  16  12  86 CALM      29.53R
COOK           FLURRIES  18  16  93 CALM      29.54R
WALKER         CLOUDY    19  18  93 NW12G20   29.55R WCI   7
$$
MNZ012-019>021-037-131500-
   Northeast Minnesota

CITY           SKY/WX    TMP DP  RH WIND       PRES   REMARKS
DULUTH         LGT SNOW  19  18  95 E8        29.45R FOG     WCI   9
ELY            LGT SNOW  18  16  93 NE6       29.52R WCI   9
HIBBING        LGT SNOW  17  15  92 N6        29.50R FOG     WCI   9
EVELETH        LGT SNOW  18  14  84 NE6       29.50S WCI  10
DULUTH HARBOR  LGT SNOW  23  19  86 E8        29.52R WCI  14
TWO HARBORS    LGT SNOW  25  19  80 NE6       29.48R WCI  18
GRAND MARAIS     N/A     24  19  81 E23       29.61R WCI   9
G MARAIS ARPRT LGT SNOW  16   9  73 NE12      29.53R WCI   3
$$
MNZ029>031-032-039>041-046>048-054>057-064-131500-
   West Central Minnesota

CITY           SKY/WX    TMP DP  RH WIND       PRES   REMARKS
FERGUS FALLS   CLOUDY    27  25  93 N29G44    29.65R WCI  11
WHEATON        CLOUDY    32  28  86 NW24G33   29.68R WCI  19
MORRIS         CLOUDY    30  27  86 N39G52    29.58R WCI  13
ALEXANDRIA     CLOUDY    28  25  88 N23G33    29.54R WCI  14
ELBOW LAKE     CLOUDY    27  25  93 NW28G39   29.60R WCI  11
WADENA         CLOUDY    27  25  93 NW21G30   29.53R WCI  13
GLENWOOD       CLEAR     28  27  93 NW31G41   29.53R WCI  12
APPLETON       CLOUDY    34  28  80 N35G41    29.60R WCI  19
BENSON           N/A     30  27  86 N37G49    29.58R WCI  14
ORTONVILLE     CLOUDY    34  28  80 NW25      29.63R WCI  21
MADISON        CLOUDY    36  32  87 NW29G40   29.63R
WILLMAR        CLOUDY    34  30  86 NW29G38   29.52R WCI  20
$$
MNZ033>034-036-042>043-049>051-058-059-131500-
   Central Minnesota

CITY           SKY/WX    TMP DP  RH WIND       PRES   REMARKS
ST CLOUD       CLOUDY    25  23  92 NW12G18   29.45R WCI  14
SAUK CENTRE    CLOUDY    30  27  88 NW26G36   29.50R WCI  16
PAYNESVILLE    CLOUDY    34  31  90 NW25G32   29.48R WCI  21
AITKIN         CLOUDY    16  12  86 N12       29.48R WCI   3
PINE RIVER     CLOUDY    19  18  93 N14G21    29.56R WCI   6
BRAINERD       CLOUDY    21  17  84 N14       29.50R WCI   8
STAPLES        CLOUDY    27  25  93 NW20G26   29.51R WCI  13
LONG PRAIRIE   CLOUDY    32  28  86 W22G31    29.48R FOG     WCI  19
LITTLE FALLS   CLOUDY    28  21  74 NW18G29   29.49R WCI  16
LITCHFIELD     CLOUDY    36  34  93 NW10      29.46R
BUFFALO        CLOUDY    26  24  91 NW12      29.44R WCI  15
MAPLE LAKE     CLOUDY    28  26  94 NW12      29.45R WCI  17
HUTCHINSON     CLOUDY    35  33  94 NW15G21   29.45R WCI  25
$$
MNZ037-044-045-052-053-131500-
   East Central Minnesota

CITY           SKY/WX    TMP DP  RH WIND       PRES   REMARKS
PRINCETON      CLOUDY    25  21  86 NW7       29.44R WCI  17
MORA           CLOUDY    21  19  93 N5        29.46R WCI  15
CAMBRIDGE      FLURRIES  25  19  80 N5        29.44R WCI  19
RUSH CITY      FLURRIES  21  19  91 N10       29.44R WCI  10
MOOSE LAKE     CLOUDY    19  14  79 CALM      29.45R
HINCKLEY       CLOUDY    21  19  93 N8        29.45R WCI  12
CLOQUET        CLOUDY    18  16  93 CALM      29.46R
MCGREGOR       CLOUDY    18  16  93 N8        29.49R WCI   7
$$
MNZ071>073-080-081-089-090-097-098-131500-
   Southwest Minnesota

CITY           SKY/WX    TMP DP  RH WIND       PRES   REMARKS
MONTEVIDEO     CLOUDY    32  30  93 N31G47    29.58R WCI  17
GRANITE FALLS  CLOUDY    36  32  86 NW29G44   29.57R
CANBY          CLOUDY    36  32  84 W28G40    29.64R
MARSHALL       CLOUDY    36  32  85 NW36G44   29.55R
REDWOOD FALLS  CLOUDY    35  29  78 NW20G41   29.51R WCI  24
OLIVIA         CLOUDY    34  32  93 NW31G40   29.50R WCI  20
PIPESTONE      CLOUDY    36  32  87 N30G38    29.59R
WINDOM         FLURRIES  34  23  64 NW29G43   29.50R WCI  20
WORTHINGTON    CLOUDY    36  32  85 NW31G38   29.55R
JACKSON        LGT SNOW  34  32  93 MISG      29.50R
SLAYTON        CLOUDY    35  33  92 NW31G39   29.54R WCI  21
$$
MNZ065>067-074>077-082>085-091>093-131500-
   South Central Minnesota

CITY           SKY/WX    TMP DP  RH WIND       PRES   REMARKS
MANKATO        MIX PCPN  35  30  82 NW21      29.42R WCI  24
NEW ULM        LGT SNOW  34  30  86 NW25G43   29.46R WCI  21
ST JAMES       LGT SNOW  34  34 100 NW25G36   29.48R WCI  21
FAIRMONT       RAIN      34  32  92 NW32G40   29.45R WCI  20
GLENCOE        LGT SNOW  33  33 100 NW20G30   29.43R WCI  21
FARIBAULT      CLOUDY    34  27  75 NW15G28   29.37R WCI  24
OWATONNA       CLOUDY    34  28  80 NW24      29.36R WCI  21
WASECA         CLOUDY    36  30  80 NW25G37   29.40R
$$
MNZ078>079-086>088-094>096-131500-
   Southeast Minnesota

CITY           SKY/WX    TMP DP  RH WIND       PRES   REMARKS
ROCHESTER      CLOUDY    33  27  78 MISG      29.29S
RED WING       PTCLDY    27  19  74 NE5       29.35R WCI  21
STANTON        PTCLDY    28  24  85 N12       29.36R WCI  18
DODGE CENTER   CLOUDY    34  27  75 NW17G24   29.31R WCI  23
WINONA         CLOUDY    30  23  74 CALM      29.34R
AUSTIN         CLOUDY    36  27  69 NW17G26   29.30S
PRESTON        CLOUDY    30  24  76 W9        29.30S WCI  22
$$
ABBREVIATIONS USED IN REMARKS
   TC - TEMPERATURES IN CELSIUS
  WCI - WIND CHILL INDEX
   HX - HEAT INDEX
  VSB - VISIBILITY
$$




USA.gov is the U.S. government's official web portal to all federal, state and local government web resources and services.